Location: Unspecified
(0.0000°N, 0.0000°E)
Time: 07:16:51
(UTC+00:00)

Vanguard 1 Rocket - Pass Details

Date: 09 December 2017
Orbit: 652 x 4225 km, 34.3° (Epoch: 20 July)

Event Time Altitude Azimuth Distance (km) Brightness Sun altitude
Rises 22:38:12 0° 318° (NW) 7,406 12.0 -60.8°
Enters shadow 22:43:39 10° 327° (NNW) 6,792 11.7 -61.6°
Exits shadow 23:26:29 10° 89° (E) 6,599 11.6 -66.2°
Drops below altitude 10° 23:26:33 10° 89° (E) 6,607 11.6 -66.2°
Sets 23:31:41 0° 97° (E) 7,227 12.0 -66.5°
